Régionale 5 - La Mare des Pressoirs - parcours A

Date : 14/11/2010

Place Nom Licence Catégorie Club Temps Points
1 RAIMBAULT Juste 8237 H21 7715IF 1:01:09 6667
2 THOMAS Johann 12934 H21 9404IF 1:06:59 6086
3 BRAULT Lionel 11531 H35 9105IF 1:08:11 5979
4 TARDY Victor 5638 H18 6806GE 1:09:19 5881
5 GODEFROY Bruno 11475 H18 7707IF 1:09:32 5863
6 MARTEL Franck 10757 H35 9202IF 1:10:16 5802
7 BONNEAU Maxime 4374 H20 7715IF 1:11:20 5715
8 BESTEL Thierry 9601 H35 9105IF 1:14:15 5490
9 SCHMIDT-MORGENROTH Jacques 19028 H18 6804GE 1:14:35 5466
10 MOREY Etienne 3141 H21 7720IF 1:17:34 5256
11 RORA Sébastien 6481 H21 7715IF 1:18:02 5224
12 THURIOT Kévin 6014 H21 9502IF 1:19:11 5148
13 JOURDAT Olivier 3742 H21 4201AR 1:20:09 5086
14 PLAGNE Sylvain 22 H35 4204AR 1:21:32 5000
15 JOVER Kévin 12073 H18 5604BR 1:22:01 4970
16 HEALY Yann 13445 H21 9105IF 1:23:28 4884
17 CADART Yoann 20377 H21 9202IF 1:24:17 4837
18 LANNEZVAL Yann 7630 H35 2517BF 1:24:30 4824
19 QUINQUENEL Herve 15176 H21 9404IF 1:28:25 4611
20 GALPIN Nicolas 883 H21 7707IF 1:28:59 4581
21 NAVILLE Thierry 18327 H40 9209IF 1:29:49 4539
22 DAEM Adriaan 19344 H35 7807IF 1:30:29 4505
23 ROCH Stéphane 19558 H35 9404IF 1:30:32 4503
24 SERGEANT Dominique 1433 H50 9307IF 1:32:51 4390
25 BARBE David 8795 H21 4705NA 1:33:46 4348
26 MEHEUT Guillaume 20779 H21 7512IF 1:34:48 4300
27 DALLE Eric 21472 H35 9209IF 1:38:37 4134
28 GUESDON Maxime 8990 H21 7807IF 1:39:31 4096
29 DEVILLERS Christophe 2171 H40 9209IF 1:40:22 4062
30 LE ROUX Eric 23652 H21 9202IF 1:41:10 4030
31 BESCH Frederic 16588 H50 9404IF 1:42:31 3976
32 AUGUSTYNOWICZ Brice 22780 H21 9105IF 1:44:12 3912
33 MONTAGARD Frédéric 12379 H35 7808IF 1:45:00 3882
34 MOREL Olivier 8234 H21 7707IF 1:48:31 3757
35 BARBIER Patrick 12177 H50 8903BF 1:50:20 3695
36 CUMPSTEY Ian 23908 H21 7807IF 1:51:32 3655
37 MORAND Jean-Philippe 20466 H35 7807IF 1:54:32 3559
38 BODARD Stephan 13318 H35 9404IF 1:56:44 3492
39 WU Thierry 20784 H35 7808IF 2:09:09 3156
40 SAUVESTRE Didier 22734 H21 7512IF 2:09:47 3141
41 ROBERT Julien 22744 H21 7512IF 2:24:17 2825
BEILL Cédric 20279 H20 6804GE pm 0
JALABERT Julien 18446 H21 9507IF pm 0
POUZET Stephane 14549 H21 8903BF pm 0